Location: Bidwell Hollow
(37.7387°N, 90.1707°W)
Time: 02:25:21
(UTC+00:00)

Vanguard 3 - Pass Details

Date: 10 May 2026
Orbit: 507 x 3204 km, 33.3° (Epoch: 6 June)

Event Time Altitude Azimuth Distance (km) Brightness Sun altitude
Rises 00:41:56 0° 273° (W) 6,924 13.7 2.2°
Reaches altitude 10° 00:47:01 10° 271° (W) 5,658 13.0 1.3°
Maximum altitude 01:02:49 67° 194° (SSW) 2,101 9.3 -1.6°
Drops below altitude 10° 01:11:50 10° 114° (ESE) 3,396 9.6 -3.2°
Enters shadow 01:13:13 - 112° (ESE) 3,807 9.9 -3.5°
Sets 01:14:08 0° 111° (ESE) 4,092 - -3.6°
